031  
FPUS83 KFGF 131510  
OPUFGF  
PRAIRIE TO PINES WEATHER ROUNDUP  
NATIONAL WEATHER SERVICE EASTERN NORTH DAKOTA/GRAND FORKS ND  
1000 AM CDT THU AUG 13 2020  
 
**SATELLITE DATA USED TO AUGMENT SKY COVER AT AUTOMATED STATIONS**  
***** WEATHER ACROSS EASTERN NORTH DAKOTA *****  
 
CITY SKY/WX TMP DP RH WIND PRES REMARKS  
GRAND FORKS CLOUDY 70 66 87 SE17 29.79F  
GRND FORKS AFB CLOUDY 69 69 100 S14 29.79F  
GRND FORKS NWS N/A 70 67 89 SE12 29.76F  
BUXTON NOT AVBL  
DEVILS LAKE CLOUDY 70 67 90 SE7 29.79S  
FARGO PTSUNNY 72 70 93 SE17G28 29.80F  
WAHPETON ARPT NOT AVBL  

 
 
***** WEATHER ACROSS CENTRAL AND WESTERN NORTH DAKOTA *****  
 
CITY SKY/WX TMP DP RH WIND PRES REMARKS  
JAMESTOWN FAIR 77 69 76 S13 29.75S  
BISMARCK PTSUNNY 77 67 71 N10 29.76R  
MINOT RAIN 70 69 97 CALM 29.78R FOG  
MINOT AFB DRIZZLE 69 69 100 W6 29.78R  
GARRISON N/A 73 70 90 NW6 29.80R  
WILLISTON NOT AVBL  
DICKINSON FAIR 73 65 75 N13 29.86R  
HETTINGER FAIR 72 62 71 NW15G24 29.88R  

 
 
***** OTHER OBSERVATIONS NORTHEAST NORTH DAKOTA *****  
 
CITY SKY/WX TMP DP RH WIND PRES REMARKS  
WALHALLA CLOUDY 66 66 100 SE5 29.82R  
LANGDON FOG 66 66 100 SE9 29.82F VSB 1/2  
CAVALIER CLOUDY 66 64 94 SE12G18 29.79F  
GRAFTON N/A 68 68 100 SE15 29.82F  
CANDO FOG 68 68 100 SE7 29.81F VSB 1  
FORT TOTTEN N/A 70 70 100 S6 29.95S  
ROLLA PTSUNNY 66 66 100 S3 29.83R FOG  
RUGBY PTSUNNY 68 68 100 E6 29.78R  
***** THE ABOVE OBSERVATIONS ARE NON NWS ARE NOT QUALITY  
CONTROLLED AND MAY MIS-REPORT RAIN FOR SNOW...  

 
 
***** OTHER OBSERVATIONS SOUTHEAST NORTH DAKOTA *****  
 
CITY SKY/WX TMP DP RH WIND PRES REMARKS  
COOPERSTOWN CLOUDY 72 72 100 SE12G18 29.78F  
VALLEY CITY CLOUDY 73 73 100 S15 29.78F  
OAKES FAIR 77 72 83 S16G23 29.78F  
GWINNER SUNNY 81 77 89 S15 29.78F  
SHEYENNE NWR N/A 78 72 81 S12 29.95S  
BUFFALO NOT AVBL  
WYNDMERE NOT AVBL  
***** THE ABOVE OBSERVATIONS ARE NON NWS ARE NOT QUALITY  
CONTROLLED AND MAY MIS-REPORT RAIN FOR SNOW...  

 
 
***** WEATHER ACROSS NORTHERN MINNESOTA *****  
 
CITY SKY/WX TMP DP RH WIND PRES REMARKS  
FLAG ISLAND N/A 68 59 73 SE12G20 29.92F  
WARROAD CLOUDY 64 63 94 SE13 29.92F  
ROSEAU CLOUDY 66 N/A N/A SE12 29.89F  
HALLOCK CLOUDY 70 66 88 SE14 29.82F  
THF RVR FALLS NOT AVBL  
HALSTAD NOT AVBL  
FOSSTON FAIR 70 64 83 SE9G18 29.88F  
BAUDETTE CLOUDY 67 62 84 SE13G20 29.96F  
WASKISH CLOUDY 66 63 88 SE9 29.96S  
CROOKSTON CLOUDY 72 68 88 SE17 29.83F  

 
***** WEATHER ACROSS CENTRAL AND WEST MINNESOTA *****  
 
CITY SKY/WX TMP DP RH WIND PRES REMARKS  
BEMIDJI CLOUDY 65 64 94 SE14 29.95S  
PARK RAPIDS FOG 67 65 93 SE13 29.94F VSB 1  
WADENA CLOUDY 68 68 100 SE13 29.92F FOG  
DETROIT LAKES N/A 68 66 94 SE15 29.89F FOG  
MOORHEAD FAIR 79 66 65 SE18G24 29.82F  
FERGUS FALLS FAIR 75 72 88 SE16 29.85F  
ELBOW LAKE PTSUNNY 76 72 85 SE17 29.88F  
MORRIS MN FAIR 75 73 94 S15 29.89F  
STAPLES CLOUDY 66 66 100 SE6 29.95S FOG  
WHEATON FAIR 79 70 73 SE15G21 29.84F  

 
***** WEATHER ELSEWHERE ACROSS MINNESOTA *****  
 
CITY SKY/WX TMP DP RH WIND PRES REMARKS  
DULUTH CLOUDY 65 59 81 SE10 30.05F  
INTRNTL FALLS FAIR 71 60 68 SE13 30.00R  
ELY PTSUNNY 70 57 64 SE16G22 30.06S  
CLOQUET CLOUDY 63 59 88 E8 30.04F  
BRAINERD FOG 69 65 86 SE8 29.98F VSB 1  
HIBBING CLOUDY 64 59 83 SE8 30.03F  
ALEXANDRIA CLOUDY 75 71 87 S13 29.93F  
SAINT CLOUD CLOUDY 71 69 93 SE9 29.98F  
MINNEAPOLIS FAIR 76 69 79 S9 30.01F  

 
 
***** WEATHER ACROSS SOUTH DAKOTA *****  
 
CITY SKY/WX TMP DP RH WIND PRES REMARKS  
SIOUX FALLS FAIR 80 72 76 S13 29.95R  
BROOKINGS FAIR 78 72 81 S15 29.92F  
WATERTOWN FAIR 77 71 82 S17G25 29.87F  
HURON FAIR 78 71 79 S15 29.85S  
SISSETON N/A 79 72 79 S16G23 29.80F  
ABERDEEN FAIR 80 70 71 S15G30 29.79S  
MITCHELL FAIR 79 71 76 S13G26 29.89R  
PIERRE FAIR 82 61 48 S12 29.79S  
MOBRIDGE FAIR 79 59 50 S10 29.75R  
RAPID CITY FAIR 80 47 31 N13G20 29.92R  

 
 
***** SOME WEATHER IN NEARBY STATES *****  
 
CITY SKY/WX TMP DP RH WIND PRES REMARKS  
GLASGOW MT FAIR 68 40 35 NW12 29.94R  
GREAT FALLS MT FAIR 59 38 45 W8 30.04S  
CHEYENNE WY FAIR 78 33 19 W7 30.21S  
SCOTTSBLUFF NE FAIR 75 58 55 W6 30.05S  
OMAHA NE FAIR 82 71 69 S12 29.99F  
DES MOINES IA FAIR 80 71 74 S8 30.04S  
DAVENPORT IA FAIR 76 65 68 SE8 30.11S  
CHICAGO IL PTSUNNY 82 62 50 NE6 30.12S  
EAU CLAIRE WI CLOUDY 72 60 66 SE13 30.07F  
LA CROSSE WI CLOUDY 78 59 51 SE9 30.09R  

 
 
***** SOME NATIONAL WEATHER *****  
 
CITY SKY/WX TMP DP RH WIND PRES REMARKS  
LA GUARDIA NY LGT RAIN 76 67 73 NE3 30.10S  
RALEIGH NC PTSUNNY 83 73 72 N7 30.04S  
ATLANTA GA FAIR 82 71 69 S5 30.08S  
NEW ORLEANS LA PTSUNNY 90 76 63 NW7 30.03R HX 101  
OKLAHOMA CITY FAIR 79 71 76 SE23 29.95F  
ALBUQUERQUE NM FAIR 77 46 33 N7 30.23R  
SALT LAKE CITY FAIR 78 35 21 SE12 30.08R  
LOS ANGELES CA PTSUNNY 70 57 63 VRB3 29.91R  
BOISE ID FAIR 62 41 46 CALM 30.05S  
SEATTLE WA FAIR 54 46 74 S7 30.15R  

 
 
*** WEATHER ACROSS MANITOBA...SASKATCHEWAN AND ONTARIO ***  
***ONTARIO***  
 
CITY SKY/WX TMP DP RH WIND PRES REMARKS  
GERALDTON MOSUNNY 75 55 50 S8 30.16F  
THUNDER BAY MOSUNNY 72 59 64 E8 30.12F  
SIOUX LOOKOUT PTSUNNY 72 61 68 S8 30.08R  
TORONTO MOSUNNY 81 59 47 NE7 30.16S  
BIG TROUT LK SUNNY 68 59 73 S9 30.12R  
PICKLE LAKE SUNNY 72 57 60 S9 30.09S  
DRYDEN SUNNY 73 57 56 SE17G23 30.04S  
KENORA PTSUNNY 72 59 64 SE14G21 29.97F  

 
*** MANITOBA***  
 
CITY SKY/WX TMP DP RH WIND PRES REMARKS  
BRANDON TSTM 63 63 100 E9 29.79F  
DAUPHIN CLOUDY 64 64 100 S17G23 29.73R  
ISLAND LAKE NOT AVBL  
PILOT MOUND N/A 66 64 94 SE6 N/A  
THE PAS HVY RAIN 63 61 94 MISG 29.84R FOG  
THOMPSON PTSUNNY 61 59 94 S3 29.87R  
WINNIPEG CLOUDY 66 63 88 SE13 29.85S  
LYNN LAKE CLOUDY 59 59 100 MISG 29.78S  
CHURCHILL PTSUNNY 63 55 77 SE12 29.99F  
GILLAM PTSUNNY 64 55 72 SE9 29.93F  

 
***SASKATCHEWAN***  
 
CITY SKY/WX TMP DP RH WIND PRES REMARKS  
ESTEVAN PTSUNNY 66 61 82 W9 29.84S  
KINDERSLEY PTSUNNY 59 48 67 SE7 29.93S  
LLOYDMINSTER MOSUNNY 57 46 67 NW8 29.90R  
PRINCE ALBERT PTSUNNY 55 52 88 CALM 29.91F  
REGINA CLOUDY 61 57 88 NW12 29.87R  
YORKTON PTSUNNY 64 61 88 VRB6 29.80R  
 
CLICK HERE TO GO TO PREVIOUS BULLETINS.

The Nexlab ND Page
The Nexlab MN Page Main Text Page